Change the Weather History Date:

Thursday, October 9, 2014

  Actual Average Record
Temperature  
Mean Temperature 51 °F 57 °F  
Max Temperature 56 °F 68 °F 88 °F (1939)
Min Temperature 45 °F 47 °F 30 °F (1989)
Degree Days  
Heating Degree Days 14 9  
Month to date heating degree days 87 67  
Since 1 July heating degree days 166 142  
Cooling Degree Days 0 1  
Month to date cooling degree days 6 10  
Year to date cooling degree days 897 1059  
Moisture  
Dew Point 48 °F    
Average Humidity 85    
Maximum Humidity 93    
Minimum Humidity 77    
Precipitation  
Precipitation 0.02 in 0.11 in 1.25 in (1993)
Month to date precipitation 0.92 0.95  
Year to date precipitation 33.97 33.40  
Snow  
Snow 0.00 in 0.10 in T in (1925)
Month to date snowfall 0.0 0.1  
Since 1 July snowfall 0.0 0.1  
Since 1 September snowfall 0.0 0.1  
Snow Depth 0.00 in    
Sea Level Pressure  
Sea Level Pressure 30.10 in    
Wind  
Wind Speed 3 mph (WNW)    
Max Wind Speed 8 mph    
Max Gust Speed 10 mph    
Visibility 10 miles    
Events Rain    
T = Trace of Precipitation, MM = Missing Value Source: NWS Daily Summary

Daily Weather History Graph

Daily Weather History Graph

Search for Another Location

Airport or City:

Trip Planner

Search our weather history database for the weather conditions in past years. The results will help you decide how hot, cold, wet, or windy it might be!

Date:

Astronomy

Oct. 09, 2014 Rise Set
Actual Time 7:49 AM EDT 7:14 PM EDT
Civil Twilight 7:22 AM EDT 7:41 PM EDT
Nautical Twilight 6:51 AM EDT 8:13 PM EDT
Astronomical Twilight 6:19 AM EDT 8:44 PM EDT
Moon 8:11 PM EDT (10/9) 9:03 AM EDT (10/9)
Length of Visible Light 12h 19m
Length of Day
11h 25m
Full, 98% of the Moon is Illuminated
Oct 9
Full
Oct 15
Last Quarter
Oct 23
New
Oct 30
First Quarter
Nov 6
Full

Hourly Weather History & Observations

Time (EDT) Temp. Windchill Dew Point Humidity Pressure Visibility Wind Dir Wind Speed Gust Speed Precip Events Conditions
12:54 AM 46.9 °F - 41.0 °F 80% 30.08 in 10.0 mi WSW 8.1 mph - N/A   Partly Cloudy
1:54 AM 46.0 °F 44.8 °F 42.1 °F 86% 30.07 in 9.0 mi WSW 3.5 mph - N/A   Scattered Clouds
2:54 AM 46.0 °F 42.5 °F 43.0 °F 89% 30.09 in 10.0 mi WSW 6.9 mph - N/A   Mostly Cloudy
3:54 AM 48.0 °F - 44.1 °F 86% 30.08 in 10.0 mi West 3.5 mph - N/A   Overcast
4:54 AM 48.9 °F - 44.1 °F 83% 30.08 in 8.0 mi WSW 4.6 mph - N/A   Overcast
5:54 AM 50.0 °F - 44.1 °F 80% 30.06 in 10.0 mi South 8.1 mph - 0.00 in   Overcast
6:54 AM 50.0 °F - 46.0 °F 86% 30.09 in 9.0 mi SW 3.5 mph - 0.01 in   Overcast
7:54 AM 51.1 °F - 46.0 °F 83% 30.08 in 10.0 mi Calm Calm - N/A   Overcast
8:54 AM 52.0 °F - 48.0 °F 86% 30.11 in 10.0 mi Calm Calm - N/A   Overcast
9:54 AM 52.0 °F - 48.0 °F 86% 30.15 in 10.0 mi WNW 4.6 mph - 0.00 in Rain Light Rain
10:54 AM 54.0 °F - 46.9 °F 77% 30.16 in 10.0 mi NW 5.8 mph - 0.00 in Rain Light Rain
11:54 AM 53.1 °F - 46.9 °F 80% 30.15 in 10.0 mi NNW 3.5 mph - 0.00 in Rain Light Rain
12:54 PM 53.1 °F - 46.9 °F 80% 30.14 in 10.0 mi ESE 3.5 mph - 0.00 in Rain Light Rain
1:54 PM 53.1 °F - 48.9 °F 86% 30.13 in 10.0 mi ENE 3.5 mph - 0.00 in   Overcast
2:54 PM 54.0 °F - 48.9 °F 83% 30.11 in 10.0 mi ENE 3.5 mph - 0.01 in Rain Light Rain
3:54 PM 54.0 °F - 50.0 °F 86% 30.10 in 10.0 mi Calm Calm - 0.00 in Rain Light Rain
4:54 PM 55.0 °F - 50.0 °F 83% 30.09 in 10.0 mi North 4.6 mph - 0.00 in   Overcast
5:54 PM 55.9 °F - 51.1 °F 84% 30.08 in 10.0 mi Calm Calm - N/A   Mostly Cloudy
6:54 PM 55.0 °F - 51.1 °F 86% 30.08 in 10.0 mi Calm Calm - 0.00 in Rain Light Rain
7:54 PM 55.0 °F - 51.1 °F 86% 30.08 in 10.0 mi Calm Calm - 0.00 in   Overcast
8:54 PM 54.0 °F - 51.1 °F 90% 30.08 in 10.0 mi Calm Calm - N/A   Overcast
9:54 PM 55.0 °F - 51.1 °F 86% 30.08 in 10.0 mi NNE 4.6 mph - N/A   Overcast
10:54 PM 55.0 °F - 51.1 °F 86% 30.09 in 10.0 mi ENE 4.6 mph - N/A   Overcast
11:54 PM 54.0 °F - 52.0 °F 93% 30.07 in 9.0 mi ESE 4.6 mph - N/A   Overcast